When you browse on this site, cookies collect data to enhance your experience and personalize the content and advertising you see.
Visit our Privacy Policy to learn more. By continuing to use the site, you agree to this use of cookies and data.
  • In Lithuania
  • List of Countries
  • For 7 days
  • Water Temperature
  • Satellite Maps
  • Weather Map
  • Weather Widgets
  • user-avatar
    Login

    Hourly Weather Igls

    Today, 18 July, Thursday

    Time Temperature Precipitation Wind Pressure Humidity
    00:00 +14°C° 0 mm 1 mps 682 mmHg 94%
    01:00 +13°C° 0 mm 1 mps 682 mmHg 94%
    02:00 +13°C° 0 mm 1 mps 682 mmHg 93%
    03:00 +13°C° 0 mm 1 mps 682 mmHg 93%
    04:00 +13°C° 0 mm 1 mps 682 mmHg 93%
    05:00 +14°C° 0 mm 1 mps 683 mmHg 90%
    06:00 +15°C° 0 mm 0 mps 683 mmHg 87%
    07:00 +16°C° 0 mm 0 mps 683 mmHg 84%
    08:00 +20°C° 0.1 mm 1 mps 684 mmHg 75%
    09:00 +22°C° 0.1 mm 1 mps 684 mmHg 65%
    10:00 +23°C° 0.1 mm 1 mps 685 mmHg 55%
    11:00 +24°C° 0.1 mm 1 mps 685 mmHg 53%
    12:00 +24°C° 0.1 mm 2 mps 684 mmHg 51%
    13:00 +24°C° 0.1 mm 2 mps 684 mmHg 49%
    14:00 +23°C° 0.8 mm 2 mps 684 mmHg 57%
    15:00 +23°C° 0.8 mm 2 mps 684 mmHg 65%
    16:00 +22°C° 0.8 mm 1 mps 684 mmHg 73%
    17:00 +21°C° 0.5 mm 1 mps 684 mmHg 77%
    18:00 +20°C° 0.5 mm 1 mps 684 mmHg 81%
    19:00 +19°C° 0.5 mm 1 mps 684 mmHg 85%
    20:00 +18°C° 0 mm 1 mps 684 mmHg 87%
    21:00 +15°C° 0 mm 1 mps 684 mmHg 89%
    22:00 +13°C° 0 mm 1 mps 684 mmHg 91%
    23:00 +13°C° 0 mm 1 mps 684 mmHg 91%

    Tomorrow, 19 July, Friday

    Time Temperature Precipitation Wind Pressure Humidity
    00:00 +13°C° 0 mm 1 mps 684 mmHg 90%
    01:00 +13°C° 0 mm 1 mps 684 mmHg 90%
    02:00 +13°C° 0 mm 1 mps 684 mmHg 89%
    03:00 +13°C° 0 mm 1 mps 684 mmHg 89%
    04:00 +13°C° 0 mm 1 mps 684 mmHg 88%
    05:00 +13°C° 0 mm 0 mps 685 mmHg 85%
    06:00 +15°C° 0 mm 0 mps 685 mmHg 82%
    07:00 +16°C° 0 mm 0 mps 686 mmHg 79%
    08:00 +18°C° 0 mm 0 mps 686 mmHg 69%
    09:00 +22°C° 0 mm 1 mps 687 mmHg 60%
    10:00 +25°C° 0 mm 1 mps 687 mmHg 50%
    11:00 +26°C° 0 mm 1 mps 687 mmHg 47%
    12:00 +27°C° 0 mm 1 mps 687 mmHg 44%
    13:00 +28°C° 0 mm 1 mps 687 mmHg 41%
    14:00 +27°C° 0.3 mm 1 mps 687 mmHg 48%
    15:00 +26°C° 0.3 mm 2 mps 686 mmHg 54%
    16:00 +25°C° 0.3 mm 2 mps 686 mmHg 60%
    17:00 +23°C° 0.6 mm 1 mps 686 mmHg 70%
    18:00 +22°C° 0.6 mm 1 mps 686 mmHg 80%
    19:00 +19°C° 0.6 mm 0 mps 686 mmHg 90%
    20:00 +19°C° 0.1 mm 1 mps 686 mmHg 91%
    21:00 +18°C° 0.1 mm 1 mps 686 mmHg 93%
    22:00 +15°C° 0.1 mm 1 mps 686 mmHg 94%
    23:00 +15°C° 0 mm 1 mps 686 mmHg 94%

    Day after tomorrow, 20 July, Saturday

    Time Temperature Precipitation Wind Pressure Humidity
    00:00 +15°C° 0 mm 1 mps 686 mmHg 93%
    01:00 +15°C° 0 mm 1 mps 686 mmHg 93%
    02:00 +15°C° 0 mm 1 mps 686 mmHg 93%
    03:00 +14°C° 0 mm 1 mps 686 mmHg 92%
    04:00 +14°C° 0 mm 1 mps 686 mmHg 92%
    05:00 +16°C° 0 mm 1 mps 686 mmHg 89%
    06:00 +19°C° 0 mm 1 mps 686 mmHg 87%
    07:00 +20°C° 0 mm 1 mps 687 mmHg 84%
    08:00 +23°C° 0 mm 1 mps 687 mmHg 73%
    09:00 +25°C° 0 mm 1 mps 688 mmHg 63%
    10:00 +28°C° 0 mm 1 mps 689 mmHg 52%
    11:00 +28°C° 0.5 mm 1 mps 688 mmHg 53%
    12:00 +28°C° 0.5 mm 1 mps 688 mmHg 55%
    13:00 +28°C° 0.5 mm 1 mps 688 mmHg 56%
    14:00 +26°C° 1.4 mm 1 mps 688 mmHg 63%
    15:00 +25°C° 1.4 mm 1 mps 688 mmHg 71%
    16:00 +24°C° 1.4 mm 1 mps 687 mmHg 78%
    17:00 +24°C° 1.3 mm 1 mps 688 mmHg 80%
    18:00 +21°C° 1.3 mm 0 mps 688 mmHg 82%
    19:00 +20°C° 1.3 mm 0 mps 688 mmHg 84%
    20:00 +21°C° 0.1 mm 1 mps 688 mmHg 85%
    21:00 +19°C° 0.1 mm 1 mps 688 mmHg 86%
    22:00 +16°C° 0.1 mm 1 mps 688 mmHg 87%
    23:00 +16°C° 0 mm 1 mps 688 mmHg 87%

    21 July, Sunday

    Time Temperature Precipitation Wind Pressure Humidity
    00:00 +16°C° 0 mm 1 mps 688 mmHg 86%
    01:00 +16°C° 0 mm 1 mps 688 mmHg 85%
    02:00 +16°C° 0 mm 1 mps 688 mmHg 83%
    03:00 +16°C° 0 mm 1 mps 688 mmHg 82%
    04:00 +16°C° 0 mm 1 mps 688 mmHg 80%
    05:00 +18°C° 0 mm 1 mps 689 mmHg 76%
    06:00 +20°C° 0 mm 1 mps 689 mmHg 72%
    07:00 +22°C° 0 mm 1 mps 690 mmHg 68%
    08:00 +24°C° 0 mm 1 mps 690 mmHg 59%
    09:00 +27°C° 0 mm 1 mps 691 mmHg 50%
    10:00 +29°C° 0 mm 1 mps 692 mmHg 41%
    11:00 +29°C° 0 mm 1 mps 692 mmHg 40%
    12:00 +30°C° 0 mm 1 mps 692 mmHg 39%
    13:00 +30°C° 0 mm 1 mps 692 mmHg 38%
    14:00 +29°C° 0.7 mm 1 mps 691 mmHg 50%
    15:00 +27°C° 0.7 mm 1 mps 691 mmHg 61%
    16:00 +26°C° 0.7 mm 2 mps 691 mmHg 72%
    17:00 +25°C° 0.7 mm 1 mps 691 mmHg 77%
    18:00 +24°C° 0.7 mm 1 mps 691 mmHg 82%
    19:00 +23°C° 0.7 mm 1 mps 691 mmHg 87%
    20:00 +22°C° 0.2 mm 1 mps 691 mmHg 89%
    21:00 +20°C° 0.2 mm 1 mps 691 mmHg 91%
    22:00 +18°C° 0.2 mm 1 mps 691 mmHg 93%
    23:00 +18°C° 0 mm 1 mps 691 mmHg 92%

    22 July, Monday

    Time Temperature Precipitation Wind Pressure Humidity
    00:00 +18°C° 0 mm 1 mps 690 mmHg 92%
    01:00 +16°C° 0 mm 1 mps 690 mmHg 91%
    02:00 +16°C° 0 mm 1 mps 690 mmHg 91%
    03:00 +16°C° 0 mm 1 mps 690 mmHg 90%
    04:00 +16°C° 0 mm 1 mps 690 mmHg 90%
    05:00 +18°C° 0 mm 1 mps 690 mmHg 86%
    06:00 +18°C° 0 mm 0 mps 691 mmHg 82%
    07:00 +20°C° 0 mm 0 mps 691 mmHg 79%
    08:00 +23°C° 0 mm 0 mps 692 mmHg 67%
    09:00 +27°C° 0 mm 1 mps 692 mmHg 56%
    10:00 +30°C° 0 mm 1 mps 692 mmHg 44%
    11:00 +30°C° 0 mm 1 mps 692 mmHg 42%
    12:00 +31°C° 0 mm 1 mps 692 mmHg 41%
    13:00 +31°C° 0 mm 1 mps 692 mmHg 39%
    14:00 +30°C° 0.2 mm 2 mps 691 mmHg 44%
    15:00 +30°C° 0.2 mm 2 mps 691 mmHg 49%
    16:00 +29°C° 0.2 mm 2 mps 691 mmHg 53%
    17:00 +28°C° 0.3 mm 1 mps 690 mmHg 63%
    18:00 +26°C° 0.3 mm 1 mps 690 mmHg 73%
    19:00 +25°C° 0.3 mm 1 mps 690 mmHg 82%
    20:00 +23°C° 0.1 mm 1 mps 690 mmHg 85%
    21:00 +21°C° 0.1 mm 1 mps 690 mmHg 88%
    22:00 +19°C° 0.1 mm 1 mps 690 mmHg 91%
    23:00 +19°C° 0 mm 1 mps 689 mmHg 91%

    23 July, Tuesday

    Time Temperature Precipitation Wind Pressure Humidity
    00:00 +19°C° 0 mm 1 mps 689 mmHg 90%
    01:00 +18°C° 0 mm 1 mps 689 mmHg 90%
    02:00 +18°C° 0 mm 1 mps 689 mmHg 90%
    03:00 +18°C° 0 mm 1 mps 689 mmHg 90%
    04:00 +18°C° 0 mm 1 mps 688 mmHg 89%
    05:00 +20°C° 0 mm 1 mps 689 mmHg 86%
    06:00 +21°C° 0 mm 1 mps 689 mmHg 82%
    07:00 +21°C° 0 mm 0 mps 689 mmHg 78%
    08:00 +25°C° 0 mm 1 mps 689 mmHg 68%
    09:00 +28°C° 0 mm 1 mps 690 mmHg 58%
    10:00 +30°C° 0 mm 1 mps 690 mmHg 48%
    11:00 +31°C° 0 mm 1 mps 690 mmHg 44%
    12:00 +31°C° 0 mm 2 mps 690 mmHg 40%
    13:00 +32°C° 0 mm 2 mps 689 mmHg 36%
    14:00 +32°C° 0 mm 2 mps 689 mmHg 38%
    15:00 +31°C° 0 mm 2 mps 689 mmHg 40%
    16:00 +31°C° 0 mm 2 mps 688 mmHg 42%
    17:00 +29°C° 0.3 mm 2 mps 688 mmHg 54%
    18:00 +27°C° 0.3 mm 1 mps 688 mmHg 67%
    19:00 +25°C° 0.3 mm 1 mps 687 mmHg 80%
    20:00 +23°C° 0.1 mm 1 mps 687 mmHg 84%
    21:00 +22°C° 0.1 mm 1 mps 687 mmHg 88%
    22:00 +20°C° 0.1 mm 1 mps 687 mmHg 92%
    23:00 +20°C° 0 mm 1 mps 687 mmHg 91%
    Show more